STARLINK-1874 (47159 NORAD) Tracking and Keplerian Element Data
This shows tracking and keplerian element data for the satellite.
Feedback or suggestion? Click here.
Element | Value |
Catalog | 47159 |
Name | STARLINK-1874 |
Epoch Orbit | 176 |
Epoch Day | 15.91667824 |
Epoch Year | 2021 |
RAAN | 98.8042 |
Inclination | 53.0564 |
Eccentricity | 0.0001313 |
Argument of Perigee | 61.0188 |
Mean Anonmoly | 197.2351 |
Mean Motion | 15.50204436 |
Decay Rate | -0.01083522 |
L1 | 1 47159U 20088AP 21015.91667824 -.01083522 00000-0 -20832-1 0 9995 |
L2 | 2 47159 53.0564 98.8042 0001313 61.0188 197.2351 15.50204436 1766 |
Live tracking and technical data element details for STARLINK-1874 (NORAD 47159). STARLINK-1874 can be tracked NOW for your location showing map with azimuth and elevation plus other details from your city location.
Track the satellite on the map from your city or location and see movement details for azimuth, elevation, latitude, longitude, range, height, and movement on the map or in text.
IsCatalogInMostPopularTable: catalog: 47159, numindb: 23
Update: records affected: 1
GetName: 47159 STARLINK-1874
Hit Count: updated at: Sun, 17 Jan 2021 09:11:25 GMT